Location: Casteau
(50.5142°N, 4.0161°E)
Time: 06:09:27
(UTC+00:00)

Vanguard 1 Rocket - Pass Details

Date: 01 August 2021
Orbit: 650 x 4226 km, 34.3° (Epoch: 21 September)

Event Time Altitude Azimuth Distance (km) Brightness Sun altitude
Rises 11:41:44 0° 249° (WSW) 7,360 12.2 57.3°
Reaches altitude 10° 11:47:58 10° 242° (WSW) 5,757 11.8 57.4°
Maximum altitude 12:00:53 33° 187° (S) 2,808 11.4 57.3°
Drops below altitude 10° 12:08:21 10° 126° (SE) 3,298 10.6 57.2°
Sets 12:10:53 0° 116° (ESE) 3,947 10.8 57.1°
